Weather History for Bismarck, ND

Change the Weather History Date:

Thursday, February 14, 2013

  Actual Average Record
Temperature  
Mean Temperature 26 °F 18 °F  
Max Temperature 34 °F 28 °F 53 °F (1901)
Min Temperature 18 °F 8 °F -33 °F (1936)
Degree Days  
Heating Degree Days 39 47  
Month to date heating degree days 590 688  
Since 1 July heating degree days 5696 5806  
Cooling Degree Days 0 0  
Month to date cooling degree days 0 0  
Year to date cooling degree days 0 0  
Moisture  
Dew Point 19 °F    
Average Humidity 77    
Maximum Humidity 92    
Minimum Humidity 62    
Precipitation  
Precipitation 0.03 in 0.02 in 0.22 in (1969)
Month to date precipitation 0.15 0.20  
Year to date precipitation 0.40 0.63  
Snow  
Snow 0.40 in 0.30 in 3.60 in (1987)
Month to date snowfall 1.8 3.6  
Since 1 July snowfall 26.9 33.0  
Snow Depth 2.00 in    
Sea Level Pressure  
Sea Level Pressure 30.09 in    
Wind  
Wind Speed 12 mph (NNW)    
Max Wind Speed 28 mph    
Max Gust Speed 38 mph    
Visibility 7 miles    
Events Snow    
T = Trace of Precipitation, MM = Missing Value Source: NWS Daily Summary

Daily Weather History Graph

Daily Weather History Graph

Search for Another Location

Airport:

Trip Planner

Search our weather history database for the weather conditions in past years. The results will help you decide how hot, cold, wet, or windy it might be!

Date:

Astronomy

Feb. 14, 2013 Rise Set
Actual Time 7:48 AM CST 6:06 PM CST
Civil Twilight 7:16 AM CST 6:38 PM CST
Nautical Twilight 6:41 AM CST 7:13 PM CST
Astronomical Twilight 6:06 AM CST 7:48 PM CST
Moon 9:30 AM CST (2/14) 11:34 PM CST (2/14)
Length of Visible Light 11h 21m
Length of Day
10h 18m
Waxing Crescent, 22% of the Moon is Illuminated
Feb 14
Waxing Crescent
Feb 17
First Quarter
Feb 25
Full
Mar 4
Last Quarter
Mar 11
New

Hourly Weather History & Observations

Time (CST) Temp. Windchill Dew Point Humidity Pressure Visibility Wind Dir Wind Speed Gust Speed Precip Events Conditions
12:11 AM 33.1 °F 27.7 °F 30.0 °F 89% 29.77 in 7.0 mi West 5.8 mph - 0.00 in   Overcast
12:19 AM 33.1 °F 27.7 °F 30.0 °F 89% 29.77 in 7.0 mi WSW 5.8 mph - 0.00 in   Overcast
12:52 AM 33.1 °F 23.9 °F 30.0 °F 89% 29.83 in 3.0 mi WNW 12.7 mph - 0.01 in Snow Light Snow
1:52 AM 33.1 °F 23.4 °F 23.0 °F 66% 29.85 in 10.0 mi WNW 13.8 mph - 0.00 in   Overcast
2:52 AM 30.9 °F 19.8 °F 25.0 °F 79% 29.86 in 10.0 mi WNW 16.1 mph 25.3 mph 0.00 in   Overcast
3:52 AM 30.9 °F 23.5 °F 25.0 °F 79% 29.87 in 10.0 mi WNW 8.1 mph - 0.00 in   Overcast
4:52 AM 30.9 °F 20.2 °F 26.1 °F 82% 29.87 in 9.0 mi WNW 15.0 mph - N/A   Overcast
5:27 AM 30.9 °F 21.2 °F 28.0 °F 89% 29.82 in 1.8 mi WNW 12.7 mph - 0.00 in Snow Light Snow
5:52 AM 30.9 °F 21.2 °F 28.0 °F 89% 29.88 in 2.5 mi WNW 12.7 mph - 0.00 in Snow Light Snow
6:00 AM 32.0 °F 21.6 °F 27.0 °F 82% 29.83 in 7.0 mi WNW 15.0 mph 21.9 mph 0.00 in Snow Light Snow
6:35 AM 30.9 °F 21.2 °F 28.0 °F 89% 29.85 in 1.8 mi NW 12.7 mph - 0.01 in Snow Light Snow
6:47 AM 30.2 °F 21.3 °F 28.4 °F 93% 29.85 in 2.0 mi NW 10.4 mph - 0.01 in Snow Light Snow
6:52 AM 30.9 °F 21.2 °F 28.0 °F 89% 29.91 in 4.0 mi NW 12.7 mph 19.6 mph 0.01 in Snow Light Snow
7:00 AM 28.9 °F 15.1 °F 25.0 °F 85% 29.87 in 2.5 mi NE 23.0 mph 28.8 mph 0.00 in Snow Light Snow
7:08 AM 25.0 °F 10.6 °F 21.0 °F 85% 29.88 in 1.2 mi NE 20.7 mph 33.4 mph 0.00 in Snow Light Snow
7:17 AM 23.0 °F 6.9 °F 19.9 °F 88% 29.90 in 1.5 mi NE 24.2 mph 31.1 mph 0.00 in Snow Light Snow
7:23 AM 23.0 °F 6.3 °F 19.0 °F 85% 29.92 in 1.5 mi NE 26.5 mph 38.0 mph 0.00 in Snow Light Snow
7:29 AM 21.9 °F 6.2 °F 18.0 °F 85% 29.93 in 2.0 mi NE 21.9 mph 38.0 mph 0.00 in Snow Light Snow
7:37 AM 21.9 °F 5.5 °F 18.0 °F 85% 29.94 in 2.5 mi NE 24.2 mph 34.5 mph 0.00 in Snow Light Snow
7:45 AM 21.9 °F 6.5 °F 18.0 °F 85% 29.95 in 1.5 mi NE 20.7 mph 35.7 mph 0.00 in Snow Light Snow
7:52 AM 21.0 °F 4.3 °F 17.1 °F 85% 30.03 in 2.0 mi NNE 24.2 mph 32.2 mph 0.00 in Snow Light Snow
8:15 AM 19.9 °F 5.2 °F 16.0 °F 85% 30.00 in 5.0 mi NNE 17.3 mph 29.9 mph 0.01 in Snow Light Snow
8:43 AM 19.0 °F 2.7 °F 15.1 °F 85% 30.04 in 2.5 mi NNE 20.7 mph 25.3 mph 0.01 in Snow Light Snow
8:52 AM 19.0 °F 4.5 °F 15.1 °F 85% 30.13 in 2.0 mi NNE 16.1 mph 24.2 mph 0.01 in Snow Light Snow
9:05 AM 19.4 °F 4.1 °F 14.0 °F 80% 30.07 in 4.0 mi NNE 18.4 mph 26.5 mph N/A Snow Light Snow
9:52 AM 19.9 °F 6.2 °F 14.0 °F 78% 30.19 in 10.0 mi North 15.0 mph 23.0 mph 0.00 in   Mostly Cloudy
10:03 AM 19.9 °F 6.7 °F 14.0 °F 78% 30.13 in 10.0 mi North 13.8 mph - 0.00 in   Mostly Cloudy
10:13 AM 19.0 °F 4.0 °F 12.9 °F 77% 30.15 in 10.0 mi NNW 17.3 mph 25.3 mph 0.00 in   Overcast
10:52 AM 18.0 °F 4.8 °F 12.0 °F 78% 30.26 in 10.0 mi North 12.7 mph 21.9 mph 0.00 in   Overcast
11:52 AM 19.9 °F 6.7 °F 12.9 °F 74% 30.28 in 10.0 mi NNW 13.8 mph 24.2 mph N/A   Overcast
12:15 PM 21.0 °F 7.1 °F 14.0 °F 74% 30.21 in 10.0 mi NNW 16.1 mph 21.9 mph N/A   Overcast
12:30 PM 21.0 °F 9.3 °F 12.9 °F 71% 30.21 in 10.0 mi NNW 11.5 mph 18.4 mph N/A   Overcast
12:52 PM 21.0 °F 9.3 °F 10.0 °F 63% 30.30 in 10.0 mi NW 11.5 mph 20.7 mph N/A   Overcast
1:52 PM 23.0 °F 11.7 °F 15.1 °F 72% 30.29 in 10.0 mi NW 11.5 mph - 0.00 in   Overcast
2:52 PM 24.1 °F 12.5 °F 17.1 °F 75% 30.29 in 6.0 mi WNW 12.7 mph - 0.00 in Snow Light Snow
3:19 PM 24.1 °F 10.1 °F 14.0 °F 65% 30.23 in 10.0 mi NW 18.4 mph 25.3 mph 0.00 in   Overcast
3:48 PM 24.8 °F 13.4 °F 15.8 °F 69% 30.23 in 10.0 mi NNW 12.7 mph - 0.00 in   Overcast
3:52 PM 24.1 °F 11.5 °F 16.0 °F 71% 30.31 in 10.0 mi NNW 15.0 mph 20.7 mph 0.00 in   Overcast
4:33 PM 24.1 °F 11.0 °F 14.0 °F 65% 30.26 in 10.0 mi WNW 16.1 mph - N/A   Mostly Cloudy
4:52 PM 23.0 °F 9.2 °F 14.0 °F 68% 30.34 in 10.0 mi NNW 17.3 mph 23.0 mph N/A   Scattered Clouds
5:52 PM 21.9 °F 9.8 °F 12.9 °F 68% 30.34 in 10.0 mi NW 12.7 mph - N/A   Overcast
6:52 PM 23.0 °F 15.8 °F 14.0 °F 68% 30.34 in 10.0 mi NW 5.8 mph - N/A   Overcast
7:52 PM 21.9 °F 14.5 °F 15.1 °F 75% 30.35 in 10.0 mi SW 5.8 mph - N/A   Overcast
8:52 PM 21.9 °F 15.7 °F 16.0 °F 78% 30.34 in 10.0 mi WSW 4.6 mph - N/A   Overcast
9:52 PM 23.0 °F 18.4 °F 17.1 °F 78% 30.33 in 6.0 mi WNW 3.5 mph - 0.00 in Snow Light Snow
10:52 PM 24.1 °F 14.4 °F 18.0 °F 77% 30.33 in 10.0 mi NW 9.2 mph - 0.00 in   Overcast
11:52 PM 21.9 °F 14.5 °F 16.0 °F 78% 30.34 in 10.0 mi North 5.8 mph - N/A   Mostly Cloudy